Weather History for LIRA - May, 2013

Change the Weather History Date:

Monday, May 13, 2013

  Actual Average Record
Temperature  
Mean Temperature 63 °F -  
Max Temperature 73 °F 76 °F - ()
Min Temperature 53 °F 55 °F - ()
Degree Days  
Heating Degree Days 2    
Growing Degree Days 13 (Base 50)    
Moisture  
Dew Point 47 °F    
Average Humidity 63    
Maximum Humidity 100    
Minimum Humidity 27    
Precipitation  
Precipitation 0.00 in 0.06 in - ()
Sea Level Pressure  
Sea Level Pressure 29.91 in    
Wind  
Wind Speed 6 mph ()    
Max Wind Speed 21 mph    
Max Gust Speed 29 mph    
Visibility 6.2 miles    
Events      
T = Trace of Precipitation, MM = Missing Value Source: Averaged Metar Reports

Daily Weather History Graph

Daily Weather History Graph

Search for Another Location

Airport or City:

Trip Planner

Search our weather history database for the weather conditions in past years. The results will help you decide how hot, cold, wet, or windy it might be!

Date:

Astronomy

May. 13, 2013 Rise Set
Actual Time 5:51 AM CEST 8:20 PM CEST
Civil Twilight 5:20 AM CEST 8:52 PM CEST
Nautical Twilight 4:40 AM CEST 9:31 PM CEST
Astronomical Twilight 3:57 AM CEST 10:16 PM CEST
Moon 8:22 AM CEST (5/13) 11:18 PM CEST (5/13)
Length of Visible Light 15h 32m
Length of Day
14h 29m
Waxing Crescent, 10% of the Moon is Illuminated
May 13
Waxing Crescent
May 18
First Quarter
May 25
Full
May 31
Last Quarter
Jun 8
New

Hourly Weather History & Observations

Time (CEST) Temp. Dew Point Humidity Pressure Visibility Wind Dir Wind Speed Gust Speed Precip Events Conditions
12:15 AM 59.0 °F 57.2 °F 94% 29.89 in - SSW 2.3 mph - N/A   Clear
12:45 AM 59.0 °F 55.4 °F 88% 29.89 in - WSW 1.2 mph - N/A   Clear
1:15 AM 57.2 °F 55.4 °F 94% 29.89 in - West 1.2 mph - N/A   Clear
1:45 AM 57.2 °F 55.4 °F 94% 29.89 in - Calm Calm - N/A   Clear
2:15 AM 57.2 °F 55.4 °F 94% 29.89 in 6.2 mi NNW 1.2 mph - N/A   Partly Cloudy
2:45 AM 55.4 °F 53.6 °F 94% 29.89 in - North 1.2 mph - N/A   Clear
3:15 AM 55.4 °F 53.6 °F 94% 29.89 in 6.2 mi NNE 1.2 mph - N/A   Partly Cloudy
3:45 AM 55.4 °F 53.6 °F 94% 29.89 in 6.2 mi Calm Calm - N/A   Partly Cloudy
4:15 AM 55.4 °F 53.6 °F 94% 29.89 in - NNE 3.5 mph - N/A   Clear
4:45 AM 55.4 °F 53.6 °F 94% 29.89 in - NE 4.6 mph - N/A   Clear
5:15 AM 53.6 °F 53.6 °F 100% 29.89 in - NE 3.5 mph - N/A   Clear
5:45 AM 53.6 °F 53.6 °F 100% 29.89 in 6.2 mi NE 3.5 mph - N/A   Partly Cloudy
6:15 AM 53.6 °F 51.8 °F 94% 29.89 in - NE 3.5 mph - N/A   Clear
6:45 AM 53.6 °F 53.6 °F 100% 29.89 in - NE 2.3 mph - N/A   Clear
7:15 AM 55.4 °F 55.4 °F 100% 29.92 in - NE 3.5 mph - N/A   Clear
7:45 AM 55.4 °F 55.4 °F 100% 29.92 in 6.2 mi NNE 3.5 mph - N/A   Partly Cloudy
8:15 AM 57.2 °F 55.4 °F 94% 29.92 in 6.2 mi North 5.8 mph - N/A   Partly Cloudy
8:45 AM 59.0 °F 53.6 °F 82% 29.92 in 6.2 mi North 11.5 mph 23.0 mph N/A   Partly Cloudy
9:15 AM 59.0 °F 51.8 °F 77% 29.95 in 6.2 mi NNW 10.4 mph - N/A   Partly Cloudy
9:45 AM 60.8 °F 53.6 °F 77% 29.95 in 6.2 mi NNW 9.2 mph - N/A   Partly Cloudy
10:15 AM 62.6 °F 51.8 °F 68% 29.92 in 6.2 mi North 10.4 mph - N/A   Partly Cloudy
10:45 AM 62.6 °F 50.0 °F 63% 29.92 in - NNW 13.8 mph - N/A   Clear
11:15 AM 64.4 °F 51.8 °F 64% 29.92 in - North 12.7 mph - N/A   Clear
11:45 AM 68.0 °F 51.8 °F 56% 29.92 in - North 13.8 mph 25.3 mph N/A   Clear
12:15 PM 69.8 °F 48.2 °F 46% 29.92 in - WNW 15.0 mph - N/A   Clear
12:45 PM 69.8 °F 48.2 °F 46% 29.92 in - NW 15.0 mph - N/A   Clear
1:15 PM 69.8 °F 46.4 °F 43% 29.92 in - North 9.2 mph - N/A   Clear
1:45 PM 71.6 °F 44.6 °F 38% 29.92 in - NW 12.7 mph - N/A   Clear
2:15 PM 73.4 °F 44.6 °F 36% 29.92 in - NNW 15.0 mph - N/A   Clear
2:45 PM 73.4 °F 44.6 °F 36% 29.92 in - NW 16.1 mph 27.6 mph N/A   Clear
3:15 PM 73.4 °F 42.8 °F 33% 29.92 in - NNW 11.5 mph - N/A   Clear
3:45 PM 73.4 °F 42.8 °F 33% 29.92 in - NW 15.0 mph - N/A   Clear
4:15 PM 73.4 °F 42.8 °F 33% 29.92 in - NW 19.6 mph - N/A   Clear
4:45 PM 73.4 °F 41.0 °F 31% 29.92 in - NNW 17.3 mph 28.8 mph N/A   Clear
5:15 PM 73.4 °F 41.0 °F 31% 29.92 in - NNW 17.3 mph - N/A   Clear
5:45 PM 71.6 °F 39.2 °F 31% 29.92 in - NNW 18.4 mph - N/A   Clear
6:15 PM 71.6 °F 37.4 °F 29% 29.92 in - NNW 15.0 mph - N/A   Clear
6:45 PM 71.6 °F 37.4 °F 29% 29.92 in - NNW 20.7 mph - N/A   Clear
7:15 PM 69.8 °F 33.8 °F 27% 29.92 in - NNW 12.7 mph - N/A   Clear
7:45 PM 69.8 °F 37.4 °F 31% 29.92 in - NNW 15.0 mph - N/A   Clear
8:15 PM 68.0 °F 35.6 °F 30% 29.92 in - NNW 12.7 mph - N/A   Clear
8:45 PM 66.2 °F 33.8 °F 30% 29.92 in - NNW 10.4 mph - N/A   Clear
9:15 PM 66.2 °F 33.8 °F 30% 29.92 in - North 10.4 mph - N/A   Clear
10:45 PM 62.6 °F 37.4 °F 39% 29.95 in - Calm Calm - N/A   Clear
11:15 PM 60.8 °F 39.2 °F 45% 29.95 in - East 3.5 mph - N/A   Clear
11:45 PM 59.0 °F 39.2 °F 48% 29.98 in - NE 2.3 mph - N/A   Clear